AAY307 KBZN-KBNA

Flight info

Callsign AAY307
Flight time 2h 59m
Altitude 37000
Route BOBKT5 BIL J151 IRK J45 STL NMANN RYYMN3
Aircraft A319/M-SDE3FGHIRWY/LB1

Departure

Time 2026-04-23 14:19
Airport Bozeman Yellowstone International Airport (KBZN)

Arrival

Time 2026-04-23 17:18
Airport Nashville International Airport (KBNA)
Time Latitude Longitude Altitude Speed Heading
2026-04-23 13:57 45.77829 -111.15974 4481 ft 0 kts 246°
2026-04-23 14:09 45.77830 -111.15968 4481 ft 2 kts 246°
2026-04-23 14:10 45.77837 -111.15947 4482 ft 2 kts 246°
2026-04-23 14:10 45.77844 -111.15926 4485 ft 2 kts 246°
2026-04-23 14:10 45.77850 -111.15905 4484 ft 2 kts 230°
2026-04-23 14:10 45.77864 -111.15894 4488 ft 2 kts 156°
2026-04-23 14:11 45.77874 -111.15903 4481 ft 0 kts 135°
2026-04-23 14:13 45.77855 -111.15876 4481 ft 7 kts 135°
2026-04-23 14:14 45.77817 -111.15815 4481 ft 8 kts 117°
2026-04-23 14:14 45.77838 -111.15749 4483 ft 7 kts 61°
2026-04-23 14:14 45.77823 -111.15686 4484 ft 7 kts 136°
2026-04-23 14:14 45.77777 -111.15622 4482 ft 12 kts 136°
2026-04-23 14:15 45.77710 -111.15530 4483 ft 14 kts 136°
2026-04-23 14:15 45.77642 -111.15435 4483 ft 14 kts 136°
2026-04-23 14:15 45.77569 -111.15332 4481 ft 16 kts 135°
2026-04-23 14:15 45.77485 -111.15216 4482 ft 17 kts 135°
2026-04-23 14:16 45.77401 -111.15098 4481 ft 17 kts 135°
2026-04-23 14:16 45.77313 -111.14979 4483 ft 18 kts 136°
2026-04-23 14:16 45.77222 -111.14851 4481 ft 18 kts 135°
2026-04-23 14:16 45.77134 -111.14726 4481 ft 18 kts 136°
2026-04-23 14:17 45.77045 -111.14602 4481 ft 18 kts 136°
2026-04-23 14:17 45.76956 -111.14479 4482 ft 18 kts 136°
2026-04-23 14:17 45.76939 -111.14365 4483 ft 12 kts 55°
2026-04-23 14:17 45.77000 -111.14274 4484 ft 13 kts 45°
2026-04-23 14:18 45.77052 -111.14210 4480 ft 6 kts 11°
2026-04-23 14:18 45.77075 -111.14234 4482 ft 4 kts 313°
2026-04-23 14:18 45.77210 -111.14423 4481 ft 63 kts 316°
2026-04-23 14:18 45.77703 -111.15105 4481 ft 130 kts 316°
2026-04-23 14:19 45.78471 -111.16169 4593 ft 169 kts 317°
2026-04-23 14:19 45.79298 -111.17320 5401 ft 163 kts 314°
2026-04-23 14:19 45.80110 -111.18455 6060 ft 163 kts 314°
2026-04-23 14:19 45.80934 -111.19634 6580 ft 176 kts 311°
2026-04-23 14:20 45.81857 -111.20952 6829 ft 199 kts 312°
2026-04-23 14:20 45.82904 -111.22431 7082 ft 223 kts 313°
2026-04-23 14:20 45.84078 -111.24080 7453 ft 248 kts 313°
2026-04-23 14:20 45.85320 -111.25826 8172 ft 257 kts 313°
2026-04-23 14:21 45.86602 -111.27628 9143 ft 258 kts 313°
2026-04-23 14:21 45.87896 -111.29443 10092 ft 260 kts 313°
2026-04-23 14:21 45.89213 -111.31263 10951 ft 264 kts 316°
2026-04-23 14:21 45.90865 -111.32504 11732 ft 277 kts 343°
2026-04-23 14:22 45.92808 -111.32424 12487 ft 295 kts 12°
2026-04-23 14:22 45.94600 -111.30852 13261 ft 312 kts 38°
2026-04-23 14:22 45.96184 -111.28641 13783 ft 327 kts 41°
2026-04-23 14:22 45.97783 -111.26271 14519 ft 327 kts 41°
2026-04-23 14:23 45.99199 -111.23678 15368 ft 333 kts 55°
2026-04-23 14:23 46.00160 -111.20590 16066 ft 343 kts 69°
2026-04-23 14:23 46.00620 -111.17101 16264 ft 369 kts 85°
2026-04-23 14:23 46.00541 -111.13344 16405 ft 391 kts 92°
2026-04-23 14:24 46.00387 -111.09338 16612 ft 409 kts 92°
2026-04-23 14:24 46.00227 -111.05200 17149 ft 416 kts 92°
2026-04-23 14:24 46.00066 -111.01005 17768 ft 422 kts 92°
2026-04-23 14:24 45.99907 -110.96756 18332 ft 427 kts 92°
2026-04-23 14:25 45.99748 -110.92519 18876 ft 430 kts 92°
2026-04-23 14:25 45.99589 -110.88200 19444 ft 433 kts 92°
2026-04-23 14:25 45.99430 -110.83851 20012 ft 436 kts 92°
2026-04-23 14:25 45.99268 -110.79474 20581 ft 439 kts 93°
2026-04-23 14:26 45.99102 -110.75070 21138 ft 441 kts 93°
2026-04-23 14:26 45.98929 -110.70639 21680 ft 444 kts 94°
2026-04-23 14:26 45.98753 -110.66242 22194 ft 447 kts 94°
2026-04-23 14:26 45.98571 -110.61765 22710 ft 449 kts 94°
2026-04-23 14:27 45.98388 -110.57261 23258 ft 451 kts 95°
2026-04-23 14:27 45.98206 -110.52749 23758 ft 451 kts 95°
2026-04-23 14:27 45.98024 -110.48298 24175 ft 453 kts 95°
2026-04-23 14:27 45.97836 -110.43753 24601 ft 455 kts 95°
2026-04-23 14:28 45.97647 -110.39201 25022 ft 457 kts 95°
2026-04-23 14:28 45.97455 -110.34618 25457 ft 459 kts 95°
2026-04-23 14:28 45.97260 -110.30012 25853 ft 461 kts 95°
2026-04-23 14:28 45.97061 -110.25396 26261 ft 463 kts 95°
2026-04-23 14:29 45.96879 -110.20828 26671 ft 464 kts 92°
2026-04-23 14:29 45.96999 -110.16180 27067 ft 467 kts 87°
2026-04-23 14:29 45.97219 -110.11509 27505 ft 467 kts 87°
2026-04-23 14:29 45.97436 -110.06854 27938 ft 467 kts 87°
2026-04-23 14:30 45.97652 -110.02184 28336 ft 468 kts 87°
2026-04-23 14:30 45.97867 -109.97496 28714 ft 469 kts 87°
2026-04-23 14:30 45.98079 -109.92810 29080 ft 471 kts 87°
2026-04-23 14:30 45.98288 -109.88155 29434 ft 472 kts 88°
2026-04-23 14:31 45.98498 -109.83439 29892 ft 471 kts 88°
2026-04-23 14:31 45.98705 -109.78751 30334 ft 469 kts 88°
2026-04-23 14:31 45.98910 -109.74072 30731 ft 468 kts 88°
2026-04-23 14:31 45.99113 -109.69386 31116 ft 468 kts 88°
2026-04-23 14:32 45.99310 -109.64772 31490 ft 468 kts 88°
2026-04-23 14:32 45.99511 -109.60099 31869 ft 467 kts 88°
2026-04-23 14:32 45.99712 -109.55428 32248 ft 467 kts 88°
2026-04-23 14:32 45.99907 -109.50764 32632 ft 467 kts 88°
2026-04-23 14:33 46.00098 -109.46089 33011 ft 467 kts 88°
2026-04-23 14:33 46.00285 -109.41427 33395 ft 467 kts 88°
2026-04-23 14:33 46.00469 -109.36814 33772 ft 466 kts 88°
2026-04-23 14:33 46.00653 -109.32154 34058 ft 468 kts 88°
2026-04-23 14:34 46.00834 -109.27451 34248 ft 471 kts 88°
2026-04-23 14:34 46.01016 -109.22722 34470 ft 473 kts 88°
2026-04-23 14:34 46.01199 -109.17977 34763 ft 474 kts 88°
2026-04-23 14:34 46.01381 -109.13232 34995 ft 475 kts 88°
2026-04-23 14:35 46.01561 -109.08540 35282 ft 475 kts 88°
2026-04-23 14:35 46.01743 -109.03776 35514 ft 476 kts 88°
2026-04-23 14:35 46.01920 -108.99013 35783 ft 476 kts 88°
2026-04-23 14:35 46.02094 -108.94255 35984 ft 477 kts 88°
2026-04-23 14:36 46.02263 -108.89539 36213 ft 477 kts 88°
2026-04-23 14:36 46.02432 -108.84756 36401 ft 479 kts 88°
2026-04-23 14:36 46.02601 -108.79951 36629 ft 479 kts 88°
2026-04-23 14:36 46.02769 -108.75160 36785 ft 481 kts 88°
2026-04-23 14:37 46.03103 -108.65498 36807 ft 483 kts 88°
2026-04-23 14:37 46.03425 -108.55868 36808 ft 484 kts 89°
2026-04-23 14:38 46.02694 -108.46340 36812 ft 476 kts 108°
2026-04-23 14:38 46.00170 -108.37608 36813 ft 471 kts 118°
2026-04-23 14:39 45.97290 -108.29176 36803 ft 472 kts 118°
2026-04-23 14:39 45.94383 -108.20715 36800 ft 471 kts 118°
2026-04-23 14:40 45.91493 -108.12299 36781 ft 472 kts 119°
2026-04-23 14:40 45.88571 -108.03830 36773 ft 473 kts 119°
2026-04-23 14:41 45.85640 -107.95374 36799 ft 472 kts 118°
2026-04-23 14:41 45.82715 -107.86937 36800 ft 471 kts 119°
2026-04-23 14:42 45.79804 -107.78583 36795 ft 471 kts 119°
2026-04-23 14:42 45.76863 -107.70195 36788 ft 470 kts 119°
2026-04-23 14:43 45.73917 -107.61818 36791 ft 470 kts 118°
2026-04-23 14:43 45.70976 -107.53470 36794 ft 469 kts 118°
2026-04-23 14:44 45.68048 -107.45179 36793 ft 469 kts 119°
2026-04-23 14:44 45.65092 -107.36842 36787 ft 469 kts 120°
2026-04-23 14:45 45.62142 -107.28506 36767 ft 469 kts 120°
2026-04-23 14:45 45.59192 -107.20223 36754 ft 470 kts 120°
2026-04-23 14:46 45.56211 -107.11910 36766 ft 470 kts 119°
2026-04-23 14:46 45.53220 -107.03584 36767 ft 470 kts 119°
2026-04-23 14:47 45.50232 -106.95278 36761 ft 471 kts 120°
2026-04-23 14:47 45.47256 -106.87019 36753 ft 472 kts 120°
2026-04-23 14:48 45.44249 -106.78703 36746 ft 472 kts 120°
2026-04-23 14:48 45.41225 -106.70380 36750 ft 473 kts 120°
2026-04-23 14:49 45.38212 -106.62097 36758 ft 473 kts 120°
2026-04-23 14:49 45.35181 -106.53793 36754 ft 473 kts 120°
2026-04-23 14:50 45.32131 -106.45486 36765 ft 473 kts 120°
2026-04-23 14:50 45.29099 -106.37256 36762 ft 472 kts 120°
2026-04-23 14:51 45.26044 -106.28971 36774 ft 472 kts 120°
2026-04-23 14:51 45.23509 -106.22100 36757 ft 473 kts 120°
2026-04-23 14:52 45.20442 -106.13822 36750 ft 473 kts 121°
2026-04-23 14:52 45.17381 -106.05594 36750 ft 474 kts 120°
2026-04-23 14:53 45.14296 -105.97320 36758 ft 474 kts 120°
2026-04-23 14:53 45.11202 -105.89050 36739 ft 475 kts 121°
2026-04-23 14:54 45.08118 -105.80829 36746 ft 475 kts 120°
2026-04-23 14:54 45.05013 -105.72572 36743 ft 475 kts 121°
2026-04-23 14:55 45.01895 -105.64294 36741 ft 476 kts 121°
2026-04-23 14:55 44.98779 -105.56081 36741 ft 476 kts 121°
2026-04-23 14:56 44.95640 -105.47819 36748 ft 477 kts 121°
2026-04-23 14:56 44.92498 -105.39565 36739 ft 477 kts 121°
2026-04-23 14:57 44.89364 -105.31360 36727 ft 478 kts 122°
2026-04-23 14:57 44.86196 -105.23094 36728 ft 479 kts 122°
2026-04-23 14:58 44.83014 -105.14812 36729 ft 480 kts 121°
2026-04-23 14:58 44.79846 -105.06584 36733 ft 480 kts 122°
2026-04-23 14:59 44.76641 -104.98286 36710 ft 481 kts 122°
2026-04-23 14:59 44.73429 -104.90006 36727 ft 481 kts 122°
2026-04-23 15:00 44.70231 -104.81784 36727 ft 481 kts 122°
2026-04-23 15:00 44.67008 -104.73531 36727 ft 481 kts 122°
2026-04-23 15:01 44.63805 -104.65336 36728 ft 481 kts 122°
2026-04-23 15:01 44.60576 -104.57104 36708 ft 480 kts 122°
2026-04-23 15:02 44.57336 -104.48873 36702 ft 480 kts 122°
2026-04-23 15:02 44.54113 -104.40710 36658 ft 481 kts 122°
2026-04-23 15:03 44.50861 -104.32492 36666 ft 482 kts 123°
2026-04-23 15:03 44.47602 -104.24278 36635 ft 482 kts 122°
2026-04-23 15:04 44.44330 -104.16067 36657 ft 482 kts 122°
2026-04-23 15:04 44.41079 -104.07919 36673 ft 482 kts 122°
2026-04-23 15:05 44.37792 -103.99715 36730 ft 481 kts 122°
2026-04-23 15:05 44.34531 -103.91590 36723 ft 481 kts 122°
2026-04-23 15:06 44.31252 -103.83434 36710 ft 480 kts 122°
2026-04-23 15:06 44.27965 -103.75299 36616 ft 480 kts 122°
2026-04-23 15:07 44.24683 -103.67229 36591 ft 480 kts 122°
2026-04-23 15:07 44.21383 -103.59107 36596 ft 480 kts 122°
2026-04-23 15:08 44.18087 -103.51000 36589 ft 480 kts 122°
2026-04-23 15:09 44.13139 -103.38909 36585 ft 480 kts 123°
2026-04-23 15:09 44.09841 -103.30850 36583 ft 479 kts 123°
2026-04-23 15:10 44.07090 -103.24163 36584 ft 478 kts 123°
2026-04-23 15:10 44.03216 -103.14791 36594 ft 478 kts 123°
2026-04-23 15:11 43.99920 -103.06839 36683 ft 477 kts 123°
2026-04-23 15:11 43.96780 -102.98716 36687 ft 479 kts 117°
2026-04-23 15:12 43.94069 -102.90263 36669 ft 478 kts 117°
2026-04-23 15:12 43.91363 -102.81878 36650 ft 478 kts 117°
2026-04-23 15:13 43.88641 -102.73468 36600 ft 477 kts 118°
2026-04-23 15:13 43.85909 -102.65063 36588 ft 478 kts 118°
2026-04-23 15:14 43.83190 -102.56715 36586 ft 478 kts 118°
2026-04-23 15:14 43.80449 -102.48320 36589 ft 478 kts 118°
2026-04-23 15:15 43.77707 -102.39944 36567 ft 478 kts 118°
2026-04-23 15:15 43.74954 -102.31573 36572 ft 477 kts 118°
2026-04-23 15:16 43.72215 -102.23269 36581 ft 477 kts 118°
2026-04-23 15:16 43.69448 -102.14921 36578 ft 477 kts 118°
2026-04-23 15:17 43.66687 -102.06639 36583 ft 477 kts 119°
2026-04-23 15:17 43.63910 -101.98299 36589 ft 476 kts 119°
2026-04-23 15:18 43.61141 -101.89975 36592 ft 475 kts 119°
2026-04-23 15:18 43.58382 -101.81744 36571 ft 475 kts 119°
2026-04-23 15:19 43.55599 -101.73478 36573 ft 475 kts 120°
2026-04-23 15:19 43.52808 -101.65219 36559 ft 475 kts 120°
2026-04-23 15:20 43.50487 -101.58358 36570 ft 474 kts 120°
2026-04-23 15:20 43.47225 -101.48740 36585 ft 474 kts 120°
2026-04-23 15:21 43.44429 -101.40522 36566 ft 473 kts 120°
2026-04-23 15:21 43.41644 -101.32358 36578 ft 474 kts 120°
2026-04-23 15:22 43.38837 -101.24158 36574 ft 473 kts 121°
2026-04-23 15:22 43.36029 -101.15972 36593 ft 473 kts 121°
2026-04-23 15:23 43.33214 -101.07795 36606 ft 473 kts 121°
2026-04-23 15:23 43.30404 -100.99684 36617 ft 472 kts 121°
2026-04-23 15:24 43.27572 -100.91528 36602 ft 473 kts 121°
2026-04-23 15:24 43.24740 -100.83364 36606 ft 473 kts 121°
2026-04-23 15:25 43.21917 -100.75268 36609 ft 473 kts 121°
2026-04-23 15:25 43.19068 -100.67122 36607 ft 473 kts 121°
2026-04-23 15:26 43.16209 -100.58970 36602 ft 473 kts 121°
2026-04-23 15:26 43.13369 -100.50888 36574 ft 473 kts 122°
2026-04-23 15:27 43.10507 -100.42783 36585 ft 472 kts 122°
2026-04-23 15:27 43.07642 -100.34687 36587 ft 472 kts 122°
2026-04-23 15:28 43.04774 -100.26608 36595 ft 472 kts 122°
2026-04-23 15:28 43.01921 -100.18593 36576 ft 471 kts 123°
2026-04-23 15:29 42.99050 -100.10530 36586 ft 471 kts 123°
2026-04-23 15:29 42.96178 -100.02503 36583 ft 470 kts 123°
2026-04-23 15:30 42.93292 -99.94478 36584 ft 470 kts 123°
2026-04-23 15:30 42.90422 -99.86520 36594 ft 469 kts 123°
2026-04-23 15:31 42.87536 -99.78515 36588 ft 469 kts 123°
2026-04-23 15:31 42.84677 -99.70579 36604 ft 468 kts 123°
2026-04-23 15:32 42.81788 -99.62613 36591 ft 467 kts 124°
2026-04-23 15:32 42.78892 -99.54682 36595 ft 467 kts 124°
2026-04-23 15:33 42.76015 -99.46809 36594 ft 467 kts 124°
2026-04-23 15:33 42.73117 -99.38901 36589 ft 466 kts 124°
2026-04-23 15:34 42.70224 -99.31030 36604 ft 465 kts 124°
2026-04-23 15:34 42.67348 -99.23208 36605 ft 464 kts 124°
2026-04-23 15:35 42.64451 -99.15364 36591 ft 463 kts 124°
2026-04-23 15:35 42.61550 -99.07542 36575 ft 463 kts 125°
2026-04-23 15:36 42.58670 -98.99780 36612 ft 462 kts 124°
2026-04-23 15:36 42.55770 -98.91982 36629 ft 462 kts 125°
2026-04-23 15:37 42.52865 -98.84204 36649 ft 462 kts 125°
2026-04-23 15:37 42.50447 -98.77739 36658 ft 461 kts 125°
2026-04-23 15:38 42.47052 -98.68721 36635 ft 461 kts 126°
2026-04-23 15:38 42.44511 -98.62385 36648 ft 458 kts 128°
2026-04-23 15:39 42.41332 -98.54963 36646 ft 456 kts 129°
2026-04-23 15:39 42.38114 -98.47524 36632 ft 456 kts 128°
2026-04-23 15:40 42.34957 -98.40114 36588 ft 457 kts 128°
2026-04-23 15:40 42.31805 -98.32652 36557 ft 456 kts 128°
2026-04-23 15:41 42.28648 -98.25206 36585 ft 455 kts 128°
2026-04-23 15:41 42.25479 -98.17801 36592 ft 454 kts 128°
2026-04-23 15:42 42.22334 -98.10459 36593 ft 454 kts 128°
2026-04-23 15:42 42.19167 -98.03077 36594 ft 454 kts 128°
2026-04-23 15:43 42.15994 -97.95703 36565 ft 453 kts 128°
2026-04-23 15:43 42.12850 -97.88403 36579 ft 451 kts 128°
2026-04-23 15:44 42.09697 -97.81104 36599 ft 450 kts 128°
2026-04-23 15:44 42.06538 -97.73822 36609 ft 450 kts 128°
2026-04-23 15:45 42.03376 -97.66552 36608 ft 450 kts 128°
2026-04-23 15:45 42.00212 -97.59281 36602 ft 449 kts 128°
2026-04-23 15:46 41.97072 -97.52084 36596 ft 447 kts 127°
2026-04-23 15:46 41.93914 -97.44874 36623 ft 447 kts 127°
2026-04-23 15:47 41.90754 -97.37675 36627 ft 447 kts 127°
2026-04-23 15:47 41.87610 -97.30522 36623 ft 447 kts 127°
2026-04-23 15:48 41.84431 -97.23316 36619 ft 447 kts 127°
2026-04-23 15:48 41.81258 -97.16139 36614 ft 447 kts 127°
2026-04-23 15:49 41.78096 -97.08995 36608 ft 448 kts 127°
2026-04-23 15:49 41.74905 -97.01810 36590 ft 447 kts 127°
2026-04-23 15:50 41.71710 -96.94645 36593 ft 448 kts 127°
2026-04-23 15:50 41.68534 -96.87520 36595 ft 449 kts 127°
2026-04-23 15:51 41.65320 -96.80336 36595 ft 450 kts 127°
2026-04-23 15:51 41.62086 -96.73135 36600 ft 451 kts 127°
2026-04-23 15:52 41.58873 -96.65968 36607 ft 451 kts 127°
2026-04-23 15:52 41.55636 -96.58768 36600 ft 452 kts 127°
2026-04-23 15:53 41.52377 -96.51575 36600 ft 452 kts 127°
2026-04-23 15:53 41.49139 -96.44433 36576 ft 452 kts 127°
2026-04-23 15:54 41.45888 -96.37253 36624 ft 452 kts 127°
2026-04-23 15:54 41.42633 -96.30069 36636 ft 452 kts 127°
2026-04-23 15:55 41.39365 -96.22889 36642 ft 452 kts 127°
2026-04-23 15:55 41.36079 -96.15715 36649 ft 452 kts 127°
2026-04-23 15:56 41.32814 -96.08602 36618 ft 453 kts 127°
2026-04-23 15:56 41.29522 -96.01446 36639 ft 453 kts 127°
2026-04-23 15:57 41.26239 -95.94287 36657 ft 453 kts 127°
2026-04-23 15:57 41.22973 -95.87188 36654 ft 453 kts 127°
2026-04-23 15:58 41.19683 -95.80063 36653 ft 453 kts 127°
2026-04-23 15:58 41.16480 -95.72850 36655 ft 457 kts 120°
2026-04-23 15:59 41.14017 -95.65027 36656 ft 459 kts 117°
2026-04-23 15:59 41.11588 -95.57171 36686 ft 459 kts 117°
2026-04-23 16:00 41.09167 -95.49391 36692 ft 458 kts 117°
2026-04-23 16:00 41.06720 -95.41599 36702 ft 458 kts 118°
2026-04-23 16:01 41.04265 -95.33792 36706 ft 458 kts 117°
2026-04-23 16:01 41.01830 -95.26043 36695 ft 457 kts 117°
2026-04-23 16:02 40.99377 -95.18275 36689 ft 457 kts 117°
2026-04-23 16:02 40.96921 -95.10510 36696 ft 457 kts 117°
2026-04-23 16:03 40.94477 -95.02801 36704 ft 456 kts 117°
2026-04-23 16:03 40.92010 -94.95054 36681 ft 456 kts 117°
2026-04-23 16:04 40.89552 -94.87352 36708 ft 457 kts 117°
2026-04-23 16:04 40.87070 -94.79607 36721 ft 457 kts 117°
2026-04-23 16:05 40.85001 -94.73186 36720 ft 457 kts 117°
2026-04-23 16:05 40.82092 -94.64163 36744 ft 457 kts 117°
2026-04-23 16:06 40.79601 -94.56433 36708 ft 457 kts 117°
2026-04-23 16:06 40.77117 -94.48753 36719 ft 458 kts 117°
2026-04-23 16:07 40.74607 -94.41017 36739 ft 459 kts 117°
2026-04-23 16:07 40.72085 -94.33273 36747 ft 459 kts 117°
2026-04-23 16:08 40.69570 -94.25576 36762 ft 460 kts 117°
2026-04-23 16:08 40.67034 -94.17811 36761 ft 460 kts 117°
2026-04-23 16:09 40.64510 -94.10110 36771 ft 460 kts 117°
2026-04-23 16:09 40.61954 -94.02369 36780 ft 461 kts 117°
2026-04-23 16:10 40.59393 -93.94641 36784 ft 461 kts 117°
2026-04-23 16:10 40.56830 -93.86898 36788 ft 461 kts 117°
2026-04-23 16:11 40.54268 -93.79159 36771 ft 461 kts 117°
2026-04-23 16:11 40.51705 -93.71462 36772 ft 462 kts 117°
2026-04-23 16:12 40.49115 -93.63716 36775 ft 463 kts 117°
2026-04-23 16:12 40.46522 -93.55964 36777 ft 463 kts 117°
2026-04-23 16:13 40.43940 -93.48269 36784 ft 463 kts 117°
2026-04-23 16:13 40.40026 -93.36663 36788 ft 462 kts 118°
2026-04-23 16:14 40.37428 -93.28987 36794 ft 462 kts 118°
2026-04-23 16:14 40.34814 -93.21266 36801 ft 462 kts 118°
2026-04-23 16:15 40.32191 -93.13558 36814 ft 462 kts 118°
2026-04-23 16:15 40.29572 -93.05900 36819 ft 463 kts 118°
2026-04-23 16:16 40.26940 -92.98182 36796 ft 463 kts 117°
2026-04-23 16:16 40.24306 -92.90471 36807 ft 464 kts 117°
2026-04-23 16:17 40.21653 -92.82746 36809 ft 465 kts 117°
2026-04-23 16:17 40.18993 -92.75039 36841 ft 465 kts 117°
2026-04-23 16:18 40.16344 -92.67377 36856 ft 465 kts 117°
2026-04-23 16:18 40.13580 -92.59735 36842 ft 464 kts 123°
2026-04-23 16:19 40.09839 -92.52895 36849 ft 462 kts 130°
2026-04-23 16:19 40.05922 -92.46208 36835 ft 463 kts 130°
2026-04-23 16:20 40.02019 -92.39577 36847 ft 463 kts 130°
2026-04-23 16:20 39.98088 -92.32897 36849 ft 463 kts 130°
2026-04-23 16:21 39.94160 -92.26227 36847 ft 463 kts 130°
2026-04-23 16:21 39.90245 -92.19596 36859 ft 463 kts 130°
2026-04-23 16:22 39.86302 -92.12947 36866 ft 463 kts 130°
2026-04-23 16:22 39.82382 -92.06342 36874 ft 463 kts 130°
2026-04-23 16:23 39.78431 -91.99693 36868 ft 463 kts 131°
2026-04-23 16:23 39.74482 -91.93066 36878 ft 463 kts 131°
2026-04-23 16:24 39.70550 -91.86486 36880 ft 463 kts 131°
2026-04-23 16:24 39.66599 -91.79883 36890 ft 463 kts 131°
2026-04-23 16:25 39.62642 -91.73285 36898 ft 463 kts 131°
2026-04-23 16:25 39.59347 -91.67809 36902 ft 463 kts 131°
2026-04-23 16:26 39.54732 -91.60143 36899 ft 463 kts 131°
2026-04-23 16:26 39.51436 -91.54674 36902 ft 462 kts 131°
2026-04-23 16:27 39.47461 -91.48108 36897 ft 462 kts 132°
2026-04-23 16:27 39.43488 -91.41547 36901 ft 462 kts 132°
2026-04-23 16:28 39.39542 -91.35027 36903 ft 462 kts 132°
2026-04-23 16:28 39.35563 -91.28471 36909 ft 462 kts 132°
2026-04-23 16:29 39.31575 -91.21936 36908 ft 462 kts 132°
2026-04-23 16:29 39.27615 -91.15459 36912 ft 462 kts 132°
2026-04-23 16:30 39.23632 -91.08951 36912 ft 461 kts 133°
2026-04-23 16:30 39.19639 -91.02443 36922 ft 461 kts 133°
2026-04-23 16:31 39.15670 -90.95993 36922 ft 461 kts 133°
2026-04-23 16:31 39.11672 -90.89507 36921 ft 461 kts 133°
2026-04-23 16:32 39.07671 -90.83028 36937 ft 461 kts 133°
2026-04-23 16:32 39.03703 -90.76599 36946 ft 461 kts 133°
2026-04-23 16:33 38.99703 -90.70135 36946 ft 461 kts 133°
2026-04-23 16:33 38.95694 -90.63686 36952 ft 461 kts 133°
2026-04-23 16:34 38.91713 -90.57289 36958 ft 461 kts 133°
2026-04-23 16:34 38.87684 -90.50863 36947 ft 459 kts 136°
2026-04-23 16:35 38.82891 -90.45627 36954 ft 447 kts 153°
2026-04-23 16:35 38.77656 -90.41389 36988 ft 448 kts 153°
2026-04-23 16:36 38.72376 -90.37104 36982 ft 448 kts 153°
2026-04-23 16:36 38.67125 -90.32851 36965 ft 449 kts 153°
2026-04-23 16:37 38.61841 -90.28572 36957 ft 449 kts 152°
2026-04-23 16:37 38.56542 -90.24288 36968 ft 450 kts 152°
2026-04-23 16:38 38.51273 -90.20036 36973 ft 450 kts 152°
2026-04-23 16:38 38.45974 -90.15762 36978 ft 450 kts 152°
2026-04-23 16:39 38.40662 -90.11498 36982 ft 450 kts 152°
2026-04-23 16:39 38.35385 -90.07275 36987 ft 450 kts 152°
2026-04-23 16:40 38.30066 -90.03027 36991 ft 450 kts 152°
2026-04-23 16:40 38.24778 -89.98798 37031 ft 450 kts 152°
2026-04-23 16:41 38.19463 -89.94552 37027 ft 450 kts 152°
2026-04-23 16:41 38.14189 -89.90361 37018 ft 449 kts 152°
2026-04-23 16:42 38.08890 -89.86147 37025 ft 449 kts 152°
2026-04-23 16:42 38.03587 -89.81933 37024 ft 448 kts 152°
2026-04-23 16:43 37.98319 -89.77760 37024 ft 448 kts 152°
2026-04-23 16:43 37.93019 -89.73568 37008 ft 448 kts 152°
2026-04-23 16:44 37.87720 -89.69395 37017 ft 448 kts 152°
2026-04-23 16:44 37.82464 -89.65252 37023 ft 448 kts 152°
2026-04-23 16:45 37.79807 -89.63158 36921 ft 447 kts 152°
2026-04-23 16:45 37.77169 -89.61081 36241 ft 447 kts 152°
2026-04-23 16:45 37.74552 -89.59025 35472 ft 448 kts 152°
2026-04-23 16:45 37.71885 -89.56935 34690 ft 451 kts 152°
2026-04-23 16:46 37.69205 -89.54836 33854 ft 453 kts 152°
2026-04-23 16:46 37.66517 -89.52731 33243 ft 454 kts 152°
2026-04-23 16:46 37.63823 -89.50623 33022 ft 456 kts 152°
2026-04-23 16:46 37.61125 -89.48510 33029 ft 457 kts 152°
2026-04-23 16:47 37.55740 -89.44291 33030 ft 458 kts 151°
2026-04-23 16:47 37.50970 -89.38881 33030 ft 468 kts 130°
2026-04-23 16:48 37.47964 -89.31561 33028 ft 477 kts 109°
2026-04-23 16:48 37.46558 -89.23353 33026 ft 479 kts 104°
2026-04-23 16:49 37.45221 -89.15195 33026 ft 479 kts 104°
2026-04-23 16:49 37.43853 -89.06984 33029 ft 479 kts 104°
2026-04-23 16:50 37.42478 -88.98765 33032 ft 479 kts 104°
2026-04-23 16:50 37.41113 -88.90607 33035 ft 479 kts 104°
2026-04-23 16:51 37.39737 -88.82400 33035 ft 479 kts 103°
2026-04-23 16:51 37.38370 -88.74257 33044 ft 475 kts 103°
2026-04-23 16:52 37.36989 -88.66119 33043 ft 474 kts 103°
2026-04-23 16:52 37.35614 -88.58017 33046 ft 474 kts 103°
2026-04-23 16:53 37.34235 -88.49914 33046 ft 474 kts 103°
2026-04-23 16:53 37.32851 -88.41824 33049 ft 474 kts 103°
2026-04-23 16:54 37.31467 -88.33774 33046 ft 473 kts 103°
2026-04-23 16:54 37.30068 -88.25676 33049 ft 473 kts 103°
2026-04-23 16:55 37.28664 -88.17600 33043 ft 473 kts 103°
2026-04-23 16:55 37.27262 -88.09556 33082 ft 473 kts 103°
2026-04-23 16:56 37.25847 -88.01488 33044 ft 473 kts 103°
2026-04-23 16:56 37.24430 -87.93419 32813 ft 473 kts 103°
2026-04-23 16:57 37.23721 -87.89375 32551 ft 474 kts 103°
2026-04-23 16:57 37.23018 -87.85387 32120 ft 474 kts 103°
2026-04-23 16:57 37.22297 -87.81320 30896 ft 482 kts 103°
2026-04-23 16:57 37.21549 -87.77182 29591 ft 489 kts 105°
2026-04-23 16:58 37.20465 -87.73108 28189 ft 494 kts 114°
2026-04-23 16:58 37.18880 -87.69279 27071 ft 493 kts 123°
2026-04-23 16:58 37.16884 -87.65830 26312 ft 483 kts 129°
2026-04-23 16:58 37.14828 -87.62528 25500 ft 477 kts 129°
2026-04-23 16:59 37.12806 -87.59267 24721 ft 470 kts 129°
2026-04-23 16:59 37.10815 -87.56054 23961 ft 463 kts 129°
2026-04-23 16:59 37.08869 -87.52923 23145 ft 458 kts 129°
2026-04-23 16:59 37.06916 -87.49793 22429 ft 451 kts 129°
2026-04-23 17:00 37.04994 -87.46719 21739 ft 444 kts 129°
2026-04-23 17:00 37.03101 -87.43696 21082 ft 437 kts 129°
2026-04-23 17:00 37.01233 -87.40716 20448 ft 431 kts 129°
2026-04-23 17:00 36.99398 -87.37791 19842 ft 425 kts 129°
2026-04-23 17:01 36.97578 -87.34899 19274 ft 420 kts 130°
2026-04-23 17:01 36.95802 -87.32086 18709 ft 416 kts 129°
2026-04-23 17:01 36.94017 -87.29261 18133 ft 411 kts 129°
2026-04-23 17:01 36.92251 -87.26460 17476 ft 408 kts 129°
2026-04-23 17:02 36.91086 -87.24609 17068 ft 407 kts 129°
2026-04-23 17:02 36.88766 -87.20924 16363 ft 400 kts 129°
2026-04-23 17:02 36.87052 -87.18205 15820 ft 396 kts 129°
2026-04-23 17:02 36.85364 -87.15528 15527 ft 386 kts 129°
2026-04-23 17:03 36.83734 -87.12943 15397 ft 371 kts 129°
2026-04-23 17:03 36.82055 -87.10633 15207 ft 358 kts 139°
2026-04-23 17:03 36.80070 -87.08821 14849 ft 350 kts 151°
2026-04-23 17:03 36.77902 -87.07456 14390 ft 347 kts 155°
2026-04-23 17:04 36.75736 -87.06136 13934 ft 346 kts 155°
2026-04-23 17:04 36.73572 -87.04813 13417 ft 344 kts 155°
2026-04-23 17:04 36.71454 -87.03520 12948 ft 341 kts 155°
2026-04-23 17:04 36.69335 -87.02228 12526 ft 336 kts 155°
2026-04-23 17:05 36.67244 -87.00949 12064 ft 332 kts 156°
2026-04-23 17:05 36.65174 -86.99683 11455 ft 332 kts 156°
2026-04-23 17:05 36.63175 -86.98393 11232 ft 313 kts 149°
2026-04-23 17:05 36.61554 -86.96752 11031 ft 299 kts 136°
2026-04-23 17:06 36.60313 -86.94700 10609 ft 296 kts 122°
2026-04-23 17:06 36.59506 -86.92350 10115 ft 295 kts 111°
2026-04-23 17:06 36.58843 -86.89938 9515 ft 292 kts 112°
2026-04-23 17:06 36.58189 -86.87590 8906 ft 290 kts 112°
2026-04-23 17:07 36.57531 -86.85244 8390 ft 283 kts 113°
2026-04-23 17:07 36.56879 -86.82939 7815 ft 280 kts 113°
2026-04-23 17:07 36.56254 -86.80720 7628 ft 261 kts 113°
2026-04-23 17:07 36.55676 -86.78661 7497 ft 242 kts 114°
2026-04-23 17:08 36.55136 -86.76747 7205 ft 235 kts 114°
2026-04-23 17:08 36.54600 -86.74834 7032 ft 233 kts 113°
2026-04-23 17:08 36.54112 -86.72895 6977 ft 233 kts 111°
2026-04-23 17:08 36.53658 -86.70982 6992 ft 234 kts 111°
2026-04-23 17:09 36.53201 -86.69037 6993 ft 233 kts 111°
2026-04-23 17:09 36.52743 -86.67095 6996 ft 234 kts 111°
2026-04-23 17:09 36.52271 -86.65163 6972 ft 231 kts 115°
2026-04-23 17:09 36.51381 -86.63594 6670 ft 218 kts 146°
2026-04-23 17:10 36.50105 -86.62598 6354 ft 216 kts 155°
2026-04-23 17:10 36.48801 -86.61714 6070 ft 216 kts 155°
2026-04-23 17:10 36.47463 -86.60864 5797 ft 215 kts 161°
2026-04-23 17:10 36.46054 -86.60258 5500 ft 214 kts 165°
2026-04-23 17:11 36.44631 -86.59717 5195 ft 213 kts 165°
2026-04-23 17:11 36.43210 -86.59200 4876 ft 213 kts 166°
2026-04-23 17:11 36.41788 -86.58682 4561 ft 213 kts 165°
2026-04-23 17:11 36.40382 -86.58174 4248 ft 213 kts 166°
2026-04-23 17:12 36.39410 -86.57980 4082 ft 213 kts 181°
2026-04-23 17:12 36.37513 -86.58515 4020 ft 209 kts 198°
2026-04-23 17:12 36.36128 -86.59061 4024 ft 209 kts 197°
2026-04-23 17:12 36.34751 -86.59603 4022 ft 209 kts 197°
2026-04-23 17:13 36.33357 -86.60153 4023 ft 211 kts 197°
2026-04-23 17:13 36.31959 -86.60705 4016 ft 211 kts 197°
2026-04-23 17:13 36.30557 -86.61258 3923 ft 211 kts 197°
2026-04-23 17:13 36.29630 -86.61623 3769 ft 211 kts 197°
2026-04-23 17:14 36.28236 -86.62173 3515 ft 210 kts 198°
2026-04-23 17:14 36.26834 -86.62725 3243 ft 211 kts 198°
2026-04-23 17:14 36.25003 -86.63446 2878 ft 202 kts 197°
2026-04-23 17:14 36.24114 -86.63795 2712 ft 195 kts 198°
2026-04-23 17:15 36.22841 -86.64296 2484 ft 187 kts 198°
2026-04-23 17:15 36.21629 -86.64773 2211 ft 176 kts 197°
2026-04-23 17:15 36.20503 -86.65216 1993 ft 167 kts 197°
2026-04-23 17:15 36.19442 -86.65633 1764 ft 153 kts 198°
2026-04-23 17:16 36.18476 -86.66013 1582 ft 139 kts 196°
2026-04-23 17:16 36.17557 -86.66374 1396 ft 139 kts 197°
2026-04-23 17:16 36.16661 -86.66726 1218 ft 129 kts 197°
2026-04-23 17:16 36.15824 -86.67055 1046 ft 124 kts 197°
2026-04-23 17:17 36.15012 -86.67380 877 ft 123 kts 198°
2026-04-23 17:17 36.14203 -86.67704 701 ft 123 kts 197°
2026-04-23 17:17 36.13409 -86.68004 576 ft 111 kts 199°
2026-04-23 17:17 36.12803 -86.68243 576 ft 68 kts 197°
2026-04-23 17:18 36.12235 -86.68465 570 ft 26 kts 197°
2026-04-23 17:18 36.12155 -86.68439 571 ft 11 kts 109°
2026-04-23 17:18 36.12132 -86.68353 579 ft 10 kts 108°
2026-04-23 17:19 36.12157 -86.68289 581 ft 10 kts 23°
2026-04-23 17:19 36.12244 -86.68257 577 ft 16 kts 16°
2026-04-23 17:19 36.12376 -86.68209 578 ft 22 kts 16°
2026-04-23 17:19 36.12524 -86.68157 574 ft 22 kts 16°
2026-04-23 17:20 36.12678 -86.68101 575 ft 23 kts 16°
2026-04-23 17:20 36.12702 -86.67966 578 ft 15 kts 133°
2026-04-23 17:21 36.12528 -86.67739 581 ft 20 kts 133°
2026-04-23 17:21 36.12433 -86.67615 581 ft 20 kts 133°
2026-04-23 17:21 36.12234 -86.67356 580 ft 22 kts 134°
2026-04-23 17:22 36.12202 -86.67253 578 ft 13 kts 59°
2026-04-23 17:22 36.12360 -86.67056 574 ft 16 kts 45°
2026-04-23 17:23 36.12530 -86.66923 572 ft 7 kts 29°
2026-04-23 17:23 36.12574 -86.66928 573 ft 7 kts 328°
2026-04-23 17:23 36.12665 -86.67056 575 ft 12 kts 311°
2026-04-23 17:24 36.12720 -86.67135 571 ft 13 kts 310°
2026-04-23 17:24 36.12746 -86.67174 569 ft 3 kts 310°
2026-04-23 17:24 36.12741 -86.67239 571 ft 5 kts 222°
2026-04-23 17:25 36.12728 -86.67254 571 ft 0 kts 224°